TimeCDT,TemperatureF,Dew PointF,Humidity,Sea Level PressureIn,VisibilityMPH,Wind Direction,Wind SpeedMPH,Gust SpeedMPH,PrecipitationIn,Events,Conditions,WindDirDegrees,DateUTC
12:52 AM,62.1,61.0,96,29.87,10.0,NE,5.8,-,N/A,,Clear,50,2013-06-22 05:52:00
1:52 AM,57.9,57.9,100,29.88,6.0,East,4.6,-,N/A,,Clear,80,2013-06-22 06:52:00
2:52 AM,59.0,59.0,100,29.91,6.0,Calm,Calm,-,N/A,,Clear,0,2013-06-22 07:52:00
3:52 AM,60.1,59.0,96,29.91,10.0,North,4.6,-,N/A,,Clear,350,2013-06-22 08:52:00
4:52 AM,60.1,59.0,96,29.91,10.0,West,5.8,-,N/A,,Clear,280,2013-06-22 09:52:00
5:52 AM,59.0,57.0,93,29.91,5.0,Calm,Calm,-,N/A,,Clear,0,2013-06-22 10:52:00
6:06 AM,57.0,55.9,96,29.91,1.8,Calm,Calm,-,N/A,,Clear,0,2013-06-22 11:06:00
6:11 AM,55.0,55.0,100,29.91,0.5,Calm,Calm,-,N/A,Fog,Fog,0,2013-06-22 11:11:00
6:18 AM,55.0,55.0,100,29.92,0.2,Calm,Calm,-,N/A,Fog,Fog,0,2013-06-22 11:18:00
6:44 AM,55.9,55.9,100,29.92,0.5,Calm,Calm,-,N/A,Fog,Fog,0,2013-06-22 11:44:00
6:52 AM,57.0,57.0,100,29.91,0.2,Calm,Calm,-,N/A,Fog,Fog,0,2013-06-22 11:52:00
7:16 AM,57.9,57.9,100,29.91,0.2,Calm,Calm,-,N/A,Fog,Fog,0,2013-06-22 12:16:00
7:40 AM,57.9,57.9,100,29.91,0.2,Calm,Calm,-,N/A,Fog,Fog,0,2013-06-22 12:40:00
7:49 AM,59.0,59.0,100,29.90,0.2,Calm,Calm,-,N/A,Fog,Fog,0,2013-06-22 12:49:00
7:52 AM,59.0,59.0,100,29.90,0.2,Calm,Calm,-,N/A,Fog,Fog,0,2013-06-22 12:52:00
8:12 AM,60.1,60.1,100,29.89,0.5,Calm,Calm,-,N/A,Fog,Fog,0,2013-06-22 13:12:00
8:15 AM,61.0,60.1,97,29.89,1.0,NE,3.5,-,N/A,,Mist,40,2013-06-22 13:15:00
8:20 AM,62.1,61.0,96,29.89,3.0,Calm,Calm,-,N/A,,Mostly Cloudy,0,2013-06-22 13:20:00
8:31 AM,62.1,61.0,96,29.88,7.0,Calm,Calm,-,N/A,,Scattered Clouds,0,2013-06-22 13:31:00
8:52 AM,66.0,62.1,87,29.86,10.0,Calm,Calm,-,N/A,,Clear,0,2013-06-22 13:52:00
9:52 AM,70.0,61.0,73,29.88,10.0,SW,3.5,-,N/A,,Clear,220,2013-06-22 14:52:00
10:52 AM,73.9,60.1,62,29.88,10.0,West,4.6,-,N/A,,Clear,270,2013-06-22 15:52:00
11:52 AM,75.9,60.1,58,29.89,10.0,West,9.2,-,N/A,,Clear,260,2013-06-22 16:52:00
12:52 PM,79.0,61.0,54,29.88,10.0,WSW,4.6,-,N/A,,Mostly Cloudy,250,2013-06-22 17:52:00
1:52 PM,80.1,60.1,50,29.87,10.0,NNE,4.6,-,N/A,,Clear,20,2013-06-22 18:52:00
2:52 PM,80.1,57.9,47,29.86,10.0,Calm,Calm,-,N/A,,Scattered Clouds,0,2013-06-22 19:52:00
3:52 PM,82.0,61.0,49,29.85,10.0,NW,6.9,-,N/A,,Mostly Cloudy,310,2013-06-22 20:52:00
4:52 PM,82.0,60.1,47,29.82,10.0,Variable,3.5,-,N/A,,Partly Cloudy,0,2013-06-22 21:52:00
5:52 PM,80.1,62.1,54,29.78,10.0,NE,8.1,-,N/A,,Partly Cloudy,50,2013-06-22 22:52:00
6:52 PM,79.0,61.0,54,29.77,10.0,NE,5.8,-,N/A,,Clear,40,2013-06-22 23:52:00
7:52 PM,77.0,62.1,60,29.76,10.0,NE,8.1,-,N/A,,Clear,40,2013-06-23 00:52:00
8:52 PM,75.9,62.1,62,29.72,10.0,NNE,10.4,-,N/A,,Mostly Cloudy,30,2013-06-23 01:52:00
9:12 PM,77.0,61.0,58,29.73,10.0,NNE,12.7,-,N/A,Thunderstorm,Overcast,20,2013-06-23 02:12:00
9:20 PM,77.0,61.0,58,29.71,10.0,North,12.7,-,N/A,Thunderstorm,Thunderstorm,10,2013-06-23 02:20:00
9:31 PM,70.0,63.0,78,29.82,1.5,SSE,41.4,49.5,0.00,Rain-Thunderstorm,Light Thunderstorms and Rain,150,2013-06-23 02:31:00
9:34 PM,64.9,64.0,97,29.80,0.5,WNW,17.3,49.5,0.01,Fog-Rain-Thunderstorm,Heavy Thunderstorms and Rain,300,2013-06-23 02:34:00
9:38 PM,64.9,64.0,97,29.78,0.2,West,11.5,49.5,0.35,Fog-Rain-Thunderstorm,Heavy Thunderstorms and Rain,260,2013-06-23 02:38:00
9:43 PM,66.0,64.9,96,29.79,0.5,Variable,4.6,39.1,1.07,Fog-Rain-Thunderstorm,Heavy Thunderstorms and Rain,0,2013-06-23 02:43:00
9:46 PM,64.4,64.4,100,29.78,0.8,Variable,4.6,23.0,1.12,Rain-Thunderstorm,Heavy Thunderstorms and Rain,0,2013-06-23 02:46:00
9:50 PM,66.2,64.4,94,29.77,2.0,Calm,Calm,-,1.14,Rain-Thunderstorm,Light Thunderstorms and Rain,0,2013-06-23 02:50:00
9:52 PM,66.0,64.0,93,29.76,4.0,Variable,4.6,-,1.14,Rain-Thunderstorm,Light Thunderstorms and Rain,0,2013-06-23 02:52:00
10:01 PM,66.0,64.0,93,29.79,10.0,SSE,10.4,-,0.00,Thunderstorm,Thunderstorm,150,2013-06-23 03:01:00
10:09 PM,64.9,62.1,90,29.79,1.8,South,27.6,39.1,0.09,Rain-Thunderstorm,Heavy Thunderstorms and Rain,180,2013-06-23 03:09:00
10:21 PM,62.1,61.0,96,29.81,1.5,West,20.7,50.6,0.20,Rain-Thunderstorm,Heavy Thunderstorms and Rain,260,2013-06-23 03:21:00
10:26 PM,62.1,59.0,90,29.80,2.0,West,16.1,32.2,0.29,Rain-Thunderstorm,Thunderstorms and Rain,270,2013-06-23 03:26:00
10:34 PM,62.1,59.0,90,29.80,7.0,NW,10.4,-,0.30,Rain-Thunderstorm,Light Thunderstorms and Rain,310,2013-06-23 03:34:00
10:52 PM,61.0,60.1,97,29.76,8.0,North,6.9,-,0.33,Rain-Thunderstorm,Light Thunderstorms and Rain,350,2013-06-23 03:52:00
10:58 PM,62.1,60.1,93,29.76,10.0,North,8.1,-,0.01,Rain,Light Rain,350,2013-06-23 03:58:00
11:52 PM,61.0,59.0,93,29.74,10.0,SE,8.1,-,0.04,,Scattered Clouds,130,2013-06-23 04:52:00